When you browse on this site, cookies collect data to enhance your experience and personalize the content and advertising you see.
Visit our Privacy Policy to learn more. By continuing to use the site, you agree to this use of cookies and data.
EN

Hourly Weather Kiustendil

Today, 6 July, Monday

Time Temperature Precipitation Wind Pressure Humidity
00:00 +10°C° 0.3 mm 2 mps 623 mmHg 90%
01:00 +10°C° 0 mm 2 mps 624 mmHg 90%
02:00 +10°C° 0.4 mm 2 mps 623 mmHg 91%
03:00 +9°C° 0.4 mm 2 mps 623 mmHg 92%
04:00 +9°C° 0.4 mm 2 mps 622 mmHg 93%
05:00 +12°C° 0.1 mm 2 mps 623 mmHg 90%
06:00 +13°C° 0.1 mm 2 mps 623 mmHg 86%
07:00 +15°C° 0.1 mm 2 mps 624 mmHg 83%
08:00 +16°C° 0 mm 2 mps 624 mmHg 77%
09:00 +17°C° 0 mm 2 mps 624 mmHg 72%
10:00 +19°C° 0 mm 2 mps 624 mmHg 66%
11:00 +19°C° 0.3 mm 2 mps 624 mmHg 64%
12:00 +20°C° 0.3 mm 2 mps 624 mmHg 63%
13:00 +20°C° 0.3 mm 2 mps 624 mmHg 61%
14:00 +20°C° 0.5 mm 2 mps 624 mmHg 62%
15:00 +20°C° 0.5 mm 2 mps 624 mmHg 62%
16:00 +20°C° 0.5 mm 2 mps 623 mmHg 63%
17:00 +18°C° 0.1 mm 2 mps 623 mmHg 69%
18:00 +17°C° 0.1 mm 2 mps 622 mmHg 76%
19:00 +15°C° 0.1 mm 2 mps 622 mmHg 83%
20:00 +14°C° 0.3 mm 2 mps 621 mmHg 84%
21:00 +14°C° 0.3 mm 2 mps 621 mmHg 86%
22:00 +13°C° 0.3 mm 2 mps 621 mmHg 88%
23:00 +13°C° 0 mm 2 mps 621 mmHg 88%

Tomorrow, 7 July, Tuesday

Time Temperature Precipitation Wind Pressure Humidity
00:00 +12°C° 0 mm 1 mps 621 mmHg 89%
01:00 +12°C° 0 mm 1 mps 621 mmHg 90%
02:00 +12°C° 0 mm 1 mps 621 mmHg 90%
03:00 +11°C° 0 mm 1 mps 620 mmHg 91%
04:00 +11°C° 0 mm 1 mps 620 mmHg 92%
05:00 +12°C° 0.1 mm 2 mps 621 mmHg 88%
06:00 +13°C° 0.1 mm 3 mps 622 mmHg 85%
07:00 +14°C° 0.1 mm 3 mps 623 mmHg 81%
08:00 +14°C° 0.1 mm 3 mps 624 mmHg 76%
09:00 +15°C° 0.1 mm 4 mps 624 mmHg 71%
10:00 +15°C° 0.1 mm 4 mps 625 mmHg 65%
11:00 +17°C° 0.1 mm 4 mps 625 mmHg 64%
12:00 +17°C° 0.1 mm 4 mps 625 mmHg 63%
13:00 +17°C° 0.1 mm 3 mps 625 mmHg 62%
14:00 +17°C° 0 mm 4 mps 625 mmHg 63%
15:00 +15°C° 0 mm 4 mps 625 mmHg 65%
16:00 +14°C° 0 mm 4 mps 625 mmHg 66%
17:00 +12°C° 0 mm 3 mps 625 mmHg 71%
18:00 +10°C° 0 mm 3 mps 624 mmHg 76%
19:00 +8°C° 0 mm 2 mps 624 mmHg 81%
20:00 +7°C° 0 mm 2 mps 624 mmHg 84%
21:00 +6°C° 0 mm 2 mps 624 mmHg 86%
22:00 +5°C° 0 mm 2 mps 624 mmHg 88%
23:00 +5°C° 0 mm 2 mps 624 mmHg 89%

Day after tomorrow, 8 July, Wednesday

Time Temperature Precipitation Wind Pressure Humidity
00:00 +4°C° 0 mm 2 mps 624 mmHg 90%
01:00 +4°C° 0 mm 2 mps 624 mmHg 90%
02:00 +3°C° 0 mm 2 mps 624 mmHg 90%
03:00 +4°C° 0 mm 1 mps 624 mmHg 91%
04:00 +4°C° 0 mm 1 mps 624 mmHg 91%
05:00 +5°C° 0 mm 1 mps 624 mmHg 85%
06:00 +7°C° 0 mm 1 mps 625 mmHg 78%
07:00 +9°C° 0 mm 1 mps 626 mmHg 72%
08:00 +10°C° 0 mm 2 mps 627 mmHg 66%
09:00 +13°C° 0 mm 2 mps 628 mmHg 61%
10:00 +15°C° 0 mm 2 mps 628 mmHg 55%
11:00 +16°C° 0 mm 2 mps 629 mmHg 53%
12:00 +17°C° 0 mm 2 mps 629 mmHg 51%
13:00 +18°C° 0 mm 2 mps 629 mmHg 49%
14:00 +18°C° 0 mm 2 mps 629 mmHg 50%
15:00 +18°C° 0 mm 2 mps 629 mmHg 50%
16:00 +19°C° 0 mm 1 mps 629 mmHg 51%
17:00 +16°C° 0 mm 1 mps 628 mmHg 59%
18:00 +14°C° 0 mm 1 mps 628 mmHg 68%
19:00 +12°C° 0 mm 1 mps 627 mmHg 76%
20:00 +11°C° 0 mm 1 mps 627 mmHg 78%
21:00 +10°C° 0 mm 1 mps 627 mmHg 81%
22:00 +9°C° 0 mm 1 mps 627 mmHg 83%
23:00 +9°C° 0 mm 1 mps 627 mmHg 84%

9 July, Thursday

Time Temperature Precipitation Wind Pressure Humidity
00:00 +9°C° 0 mm 1 mps 627 mmHg 85%
01:00 +8°C° 0 mm 1 mps 627 mmHg 86%
02:00 +8°C° 0 mm 1 mps 627 mmHg 87%
03:00 +8°C° 0 mm 1 mps 627 mmHg 88%
04:00 +7°C° 0 mm 1 mps 626 mmHg 88%
05:00 +9°C° 0 mm 1 mps 627 mmHg 83%
06:00 +11°C° 0 mm 1 mps 628 mmHg 78%
07:00 +13°C° 0 mm 1 mps 629 mmHg 73%
08:00 +15°C° 0 mm 1 mps 630 mmHg 66%
09:00 +16°C° 0 mm 1 mps 630 mmHg 59%
10:00 +18°C° 0 mm 2 mps 631 mmHg 53%
11:00 +19°C° 0 mm 2 mps 631 mmHg 50%
12:00 +20°C° 0 mm 2 mps 631 mmHg 47%
13:00 +20°C° 0 mm 2 mps 631 mmHg 44%
14:00 +20°C° 0 mm 2 mps 631 mmHg 45%
15:00 +20°C° 0 mm 2 mps 630 mmHg 46%
16:00 +20°C° 0 mm 2 mps 630 mmHg 47%
17:00 +18°C° 0 mm 2 mps 630 mmHg 55%
18:00 +16°C° 0 mm 2 mps 629 mmHg 64%
19:00 +14°C° 0 mm 2 mps 628 mmHg 72%
20:00 +13°C° 0 mm 2 mps 628 mmHg 74%
21:00 +12°C° 0 mm 2 mps 628 mmHg 76%
22:00 +11°C° 0 mm 1 mps 628 mmHg 79%
23:00 +11°C° 0 mm 1 mps 628 mmHg 80%

10 July, Friday

Time Temperature Precipitation Wind Pressure Humidity
00:00 +10°C° 0 mm 1 mps 628 mmHg 80%
01:00 +10°C° 0 mm 1 mps 627 mmHg 81%
02:00 +9°C° 0 mm 1 mps 627 mmHg 82%
03:00 +9°C° 0 mm 1 mps 627 mmHg 83%
04:00 +9°C° 0 mm 1 mps 627 mmHg 84%
05:00 +11°C° 0 mm 1 mps 628 mmHg 79%
06:00 +13°C° 0 mm 1 mps 628 mmHg 74%
07:00 +14°C° 0 mm 1 mps 629 mmHg 69%
08:00 +16°C° 0 mm 1 mps 630 mmHg 64%
09:00 +17°C° 0 mm 2 mps 630 mmHg 58%
10:00 +19°C° 0 mm 2 mps 630 mmHg 53%
11:00 +20°C° 0 mm 2 mps 630 mmHg 51%
12:00 +21°C° 0 mm 2 mps 630 mmHg 48%
13:00 +21°C° 0 mm 2 mps 630 mmHg 46%
14:00 +21°C° 0 mm 3 mps 630 mmHg 47%
15:00 +21°C° 0 mm 3 mps 630 mmHg 49%
16:00 +21°C° 0 mm 3 mps 629 mmHg 50%
17:00 +19°C° 0 mm 2 mps 629 mmHg 57%
18:00 +17°C° 0 mm 2 mps 628 mmHg 63%
19:00 +15°C° 0 mm 2 mps 627 mmHg 70%
20:00 +14°C° 0 mm 2 mps 627 mmHg 71%
21:00 +13°C° 0 mm 1 mps 627 mmHg 72%
22:00 +12°C° 0 mm 1 mps 627 mmHg 73%
23:00 +12°C° 0 mm 1 mps 627 mmHg 75%

11 July, Saturday

Time Temperature Precipitation Wind Pressure Humidity
00:00 +11°C° 0 mm 1 mps 627 mmHg 76%
01:00 +11°C° 0 mm 1 mps 626 mmHg 78%
02:00 +10°C° 0 mm 1 mps 626 mmHg 80%
03:00 +10°C° 0 mm 1 mps 626 mmHg 81%
04:00 +10°C° 0 mm 1 mps 626 mmHg 83%
05:00 +11°C° 0 mm 1 mps 626 mmHg 78%
06:00 +13°C° 0 mm 1 mps 627 mmHg 73%
07:00 +15°C° 0 mm 1 mps 628 mmHg 68%
08:00 +18°C° 0 mm 1 mps 628 mmHg 64%
09:00 +19°C° 0 mm 1 mps 629 mmHg 60%
10:00 +21°C° 0 mm 1 mps 629 mmHg 56%
11:00 +22°C° 0 mm 1 mps 629 mmHg 54%
12:00 +22°C° 0 mm 1 mps 629 mmHg 51%
13:00 +23°C° 0 mm 1 mps 629 mmHg 49%
14:00 +23°C° 0 mm 1 mps 629 mmHg 50%
15:00 +23°C° 0 mm 2 mps 628 mmHg 50%
16:00 +21°C° 0 mm 2 mps 628 mmHg 51%
17:00 +19°C° 0 mm 2 mps 627 mmHg 57%
18:00 +18°C° 0 mm 1 mps 627 mmHg 64%
19:00 +15°C° 0 mm 1 mps 626 mmHg 70%
20:00 +15°C° 0 mm 1 mps 626 mmHg 71%
21:00 +14°C° 0 mm 1 mps 626 mmHg 72%
22:00 +13°C° 0 mm 1 mps 626 mmHg 73%
23:00 +13°C° 0 mm 1 mps 626 mmHg 75%
Show more